Location: Podia
(1.5569°N, 32.3469°E)
Time: 03:51:07
(UTC+00:00)

Hubble Space Telescope - Pass Details

Date: 15 May 2021
Orbit: 535 x 539 km, 28.5° (Epoch: 16 June)

Event Time Altitude Azimuth Distance (km) Brightness Sun altitude
Exits shadow 01:12:17 13° 73° (ENE) 1,601 3.9 -35.6°
Drops below altitude 10° 01:12:45 10° 71° (ENE) 1,773 4.2 -35.5°
Sets 01:15:01 0° 67° (ENE) 2,661 5.4 -35.0°
